Wetbulb
53.17 52.75 51.95 51.50 51.20 50.87 50.67 50.46 49.80 48.43 48.08 48.42 49.14 49.76 49.61 49.00 48.73 49.00 50.07 49.93 48.64 48.25 49.06 49.32 48.83 48.44 49.69 50.07 48.49 51.24 53.18 54.66 54.03 50.96 50.12 50.77 49.30 51.38 50.61 51.55 51.32 51.55 50.36 50.24 52.43 49.58 47.56 61.79 59.66 55.52 61.67 64.16 63.96 63.72
53.28 52.72 52.06 51.72 51.19 51.26 50.82 50.72 50.45 49.07 48.15 48.05 48.62 49.26 49.23 48.75 48.44 48.37 48.04 49.71 49.86 47.07 49.39 52.13 51.58 51.75 50.58 50.09 48.19 51.92 51.19 50.93 50.60 51.86 53.36 53.06 51.45 52.98 51.74 47.09 54.98 50.10 54.95 52.60 53.20 52.85 61.32 63.64 63.12 64.83 65.70 64.51 65.02 64.89
53.14 52.71 51.99 51.59 51.06 51.37 50.85 50.72 50.58 49.91 48.52 47.75 48.17 48.82 48.91 48.58 48.07 47.66 47.64 49.02 50.05 48.47 49.70 50.93 52.06 54.67 56.10 54.77 54.79 49.84 52.84 51.27 49.94 53.85 52.13 53.28 50.18 53.62 49.76 51.07 52.74 56.10 58.16 56.27 54.58 58.51 60.84 62.95 64.26 65.68 66.77 66.10 66.15 66.09
53.12 52.72 51.76 51.32 51.09 51.32 51.09 50.57 50.50 50.49 48.98 48.00 47.89 48.36 48.61 48.35 48.01 47.32 49.20 51.20 50.66 49.69 45.62 49.98 55.62 53.52 55.93 56.06 54.47 53.70 52.58 53.97 51.75 51.36 51.59 51.46 51.50 53.82 52.63 52.20 52.26 56.18 57.88 55.75 55.36 59.76 61.00 62.75 64.30 65.52 66.71 66.76 66.05 66.00
52.90 52.33 51.45 51.21 51.23 51.18 50.65 50.46 50.49 50.45 49.45 48.24 47.70 47.87 48.19 48.04 47.98 48.25 52.11 53.13 53.30 48.79 46.38 48.73 52.31 54.50 56.57 55.61 53.04 53.47 53.28 52.53 50.79 47.65 49.41 49.83 52.18 52.37 55.27 53.79 52.18 57.85 56.31 53.65 54.71 60.79 61.61 62.64 64.74 66.34 66.16 66.10 66.99 66.49
52.57 51.47 51.20 51.30 51.11 51.04 50.52 50.73 50.66 50.67 49.68 48.47 47.53 47.67 47.99 48.16 47.95 48.81 48.92 52.41 54.42 52.31 48.30 45.78 52.30 53.04 55.54 53.64 52.69 53.18 55.19 54.46 52.89 49.27 48.25 52.79 52.52 51.56 50.41 50.39 56.70 58.38 60.06 60.40 59.51 62.57 62.69 64.04 64.68 65.57 65.97 66.38 66.73 66.68
51.17 51.26 51.27 51.24 51.12 51.03 51.10 51.20 51.11 50.73 49.61 48.45 47.65 47.67 47.98 48.26 48.28 45.69 46.08 49.54 48.44 52.40 48.76 46.08 48.07 54.04 55.66 54.26 54.46 54.62 54.36 54.16 51.41 50.50 47.38 48.91 52.22 51.88 50.92 47.93 54.24 58.78 60.00 60.74 62.58 62.65 60.63 62.09 61.91 64.14 65.14 65.36 63.24 65.30
50.39 50.09 49.75 50.52 51.16 51.02 51.00 51.01 50.97 50.47 49.10 48.21 47.54 47.86 48.31 47.74 46.83 47.42 52.30 49.37 48.14 47.89 49.54 45.12 47.84 50.31 55.75 51.62 50.71 55.86 52.92 53.08 50.81 50.15 50.41 47.22 49.34 50.48 46.08 51.32 54.55 56.13 56.98 57.55 60.26 62.52 61.60 62.94 63.05 62.88 63.91 63.59 62.87 62.96
50.27 50.32 49.79 49.50 50.16 50.95 50.97 50.83 50.75 49.86 48.80 47.63 47.51 47.42 47.89 47.62 48.45 50.50 49.77 50.19 50.80 49.65 46.80 47.70 44.88 46.03 55.27 53.17 54.59 53.20 53.69 47.97 52.22 47.56 47.79 49.08 45.86 43.63 47.90 50.05 52.59 55.25 55.31 56.27 57.44 59.40 60.61 61.37 61.10 61.18 60.52 59.53 59.03 59.01
49.90 49.76 49.74 49.72 50.39 50.45 50.63 50.54 49.99 49.23 47.80 46.72 46.23 46.43 44.25 49.65 47.94 49.97 50.50 48.85 49.25 49.54 48.42 45.14 50.89 47.86 53.24 53.24 51.84 52.10 52.54 48.83 46.22 48.48 51.89 46.26 45.61 51.21 52.11 53.91 55.44 56.01 57.23 57.26 55.49 54.95 57.70 59.81 60.28 60.12 59.60 59.94 59.78 59.69
49.78 49.85 50.18 50.45 50.35 50.39 50.35 49.97 49.15 47.42 45.19 45.24 44.02 47.07 49.83 46.81 51.42 49.44 45.03 43.92 46.11 43.47 46.54 47.21 47.29 47.05 53.98 49.23 49.00 53.23 49.90 50.44 44.55 48.22 46.40 46.07 45.36 50.81 53.92 54.56 56.12 56.80 57.56 58.24 58.94 59.40 60.11 60.08 59.50 59.74 59.33 59.56 60.06 59.88
49.82 49.90 50.08 50.03 50.01 50.06 49.92 49.57 48.09 46.66 46.79 44.92 47.71 47.87 50.30 48.67 46.30 42.14 41.77 44.78 43.27 42.81 47.07 46.72 48.12 47.56 51.79 55.59 51.30 51.27 47.35 50.02 42.37 51.30 47.07 43.62 50.12 53.80 54.47 54.66 55.54 56.27 55.92 55.97 56.57 56.55 56.88 57.12 57.49 57.93 58.75 59.14 59.28 60.19
49.31 49.54 49.44 49.62 49.78 49.94 49.65 49.00 47.13 45.98 46.21 48.41 46.68 45.33 45.54 44.22 37.03 36.45 35.68 40.48 42.69 46.36 49.50 50.42 47.90 48.82 51.37 53.91 51.08 49.75 44.25 44.53 53.13 46.14 45.26 49.40 52.32 53.49 54.89 55.94 55.10 55.65 55.34 55.43 55.22 55.84 56.04 56.17 56.81 57.04 57.24 58.11 58.52 58.57
48.64 48.67 48.88 49.31 49.71 49.80 49.23 48.23 46.87 46.31 46.96 45.31 42.67 34.73 39.35 37.69 39.97 41.71 43.67 46.47 48.27 51.39 51.70 52.50 50.10 48.71 52.50 49.35 50.02 43.41 48.83 49.03 42.58 41.56 43.52 50.25 53.21 54.43 54.31 52.98 52.60 53.30 54.61 55.37 55.97 56.58 56.60 56.83 57.16 57.61 57.70 58.06 57.71 57.31
47.67 48.47 48.78 49.08 49.57 49.57 49.02 47.97 47.43 48.18 46.76 42.26 43.93 36.79 39.41 45.42 47.03 48.75 49.90 49.13 50.05 52.56 51.64 50.34 51.15 51.95 48.93 46.38 48.62 46.70 42.83 40.66 44.16 45.28 50.47 51.47 53.14 52.69 51.87 53.82 53.85 54.01 54.89 55.75 56.79 56.67 56.51 56.54 56.46 56.76 57.92 58.53 58.39 57.94
47.42 47.65 46.40 49.15 49.69 48.88 48.56 48.20 46.30 47.55 46.61 44.71 43.76 42.19 46.24 45.15 45.90 47.35 48.23 48.77 53.37 52.84 53.44 53.20 47.41 45.44 43.99 45.32 42.63 41.48 39.72 39.39 45.77 50.56 53.76 54.80 54.42 54.78 54.05 54.42 54.91 55.43 55.61 56.04 56.12 56.38 57.14 57.14 56.96 57.39 57.93 57.58 57.41 57.21
46.55 45.31 47.72 49.37 48.76 48.22 48.13 45.90 43.50 39.98 43.57 42.43 43.37 47.37 47.58 48.49 48.90 50.56 52.03 52.39 54.95 51.78 48.44 49.33 42.75 42.30 48.77 44.20 42.22 47.01 45.42 48.00 51.10 52.93 54.13 54.47 53.30 53.56 54.49 54.88 54.99 53.51 53.20 54.45 57.13 56.24 55.97 56.62 57.08 56.55 54.77 55.94 55.60 56.52
43.01 49.48 48.86 48.23 47.65 46.67 45.97 44.95 41.61 41.48 39.75 44.42 43.53 45.86 48.72 50.42 49.36 51.71 53.23 54.23 51.93 52.08 51.68 47.04 51.30 45.03 43.87 41.41 46.02 49.88 51.55 52.91 53.68 53.62 53.97 54.08 54.88 54.95 54.99 52.77 54.17 53.57 53.92 54.11 55.03 56.18 56.99 56.14 55.80 55.43 55.78 56.63 56.24 55.71
47.75 47.34 47.86 47.72 46.88 43.88 41.25 41.83 44.93 40.35 42.95 47.24 47.43 49.32 50.87 51.57 53.55 52.99 52.40 53.55 52.88 54.03 51.85 50.69 46.07 45.56 47.50 51.10 50.94 51.94 53.00 53.47 52.87 53.08 53.28 55.65 55.09 54.49 53.95 53.86 54.65 55.48 55.70 55.94 56.00 55.79 55.93 55.04 54.71 54.73 54.63 54.78 53.76 53.80
47.72 47.45 47.21 46.24 46.72 45.17 40.50 42.20 46.75 43.12 43.03 47.12 49.83 49.26 50.77 50.78 48.31 49.67 49.36 52.77 51.43 50.72 48.49 47.53 48.91 51.68 51.79 52.58 54.00 53.38 53.57 53.34 51.94 50.56 52.13 54.15 53.89 53.01 53.57 52.09 53.09 55.10 55.28 55.86 55.56 49.92 54.21 54.19 54.59 54.51 54.12 53.94 53.44 52.46
46.68 46.16 46.56 47.83 49.07 48.08 45.91 45.35 43.52 46.08 48.38 47.91 49.39 48.74 46.75 50.52 47.98 46.63 49.49 52.08 49.11 50.07 48.77 52.25 53.00 52.90 54.48 54.56 55.32 54.92 54.85 53.92 50.46 49.81 49.46 49.87 50.89 51.10 51.22 52.21 52.81 52.90 53.64 54.08 52.86 52.21 51.20 52.49 52.99 53.20 53.46 52.98 53.51 53.75
47.06 45.94 47.71 47.98 46.54 46.26 46.03 47.79 46.48 49.58 48.01 48.71 48.55 49.45 47.50 45.90 45.75 46.82 49.95 48.23 49.18 51.30 52.30 52.44 53.32 53.91 53.26 52.74 53.88 53.85 53.74 52.93 51.94 52.19 47.94 48.76 49.19 51.14 51.52 52.94 53.29 52.94 52.75 51.99 51.73 51.79 53.64 53.09 53.69 52.81 52.60 52.22 51.69 52.62
47.62 48.32 47.57 46.32 42.74 41.47 41.72 49.94 44.58 46.72 43.80 45.31 48.53 44.98 46.13 47.38 48.71 50.49 46.53 49.76 50.23 52.11 53.09 52.95 52.52 52.99 51.96 52.62 52.74 52.84 53.54 53.33 51.88 51.16 51.55 51.31 52.86 53.17 53.84 54.49 54.37 51.48 51.40 51.38 52.72 52.89 52.81 48.36 52.05 51.83 52.37 52.99 55.20 55.20
45.45 43.47 41.23 40.67 42.52 40.40 46.72 44.13 48.33 46.40 45.58 43.52 42.65 41.44 44.11 46.64 48.86 46.92 44.09 47.42 49.87 51.54 50.68 51.32 52.41 51.44 52.87 50.77 51.04 53.28 51.65 51.34 51.73 51.67 52.54 52.79 52.79 54.41 55.64 55.36 55.49 55.66 54.10 54.94 54.11 54.79 54.80 55.10 50.06 53.85 55.30 54.79 54.40 53.68
38.03 38.25 39.67 34.24 43.85 41.16 39.87 40.72 41.44 43.22 39.46 41.89 40.13 41.16 44.28 47.95 43.71 41.43 40.49 47.04 49.71 49.82 50.90 52.14 52.14 51.69 48.83 50.65 50.51 50.84 53.34 54.62 53.00 51.72 53.53 55.17 54.29 54.15 53.73 54.55 54.82 55.55 55.32 54.41 53.59 53.30 54.21 55.64 54.58 53.92 53.41 53.74 53.29 53.15
34.45 40.71 37.30 41.51 43.20 41.13 42.26 37.63 38.37 39.16 41.42 39.81 41.02 45.99 46.83 44.25 38.89 37.49 45.24 48.92 50.36 50.43 51.43 51.26 50.18 49.24 50.00 51.80 51.62 53.46 54.80 56.68 56.40 53.83 54.66 55.75 53.58 52.89 52.97 52.20 51.96 54.59 58.06 57.79 56.78 55.39 54.93 55.36 54.21 53.58 53.60 51.96 45.62 52.92
34.62 38.00 43.22 47.64 45.92 44.72 44.04 45.32 45.81 43.13 38.72 38.44 43.24 41.40 41.85 36.98 37.50 43.84 49.61 51.73 50.90 52.89 53.99 53.53 51.04 50.42 51.13 51.69 54.74 56.74 56.84 57.38 56.45 55.21 56.60 57.36 57.37 55.96 56.52 53.80 52.57 54.85 58.75 58.58 58.53 57.19 55.61 55.62 54.47 53.44 53.23 53.61 54.68 55.65
42.47 41.29 37.59 40.54 42.36 45.48 39.35 41.85 39.96 39.16 42.50 46.96 45.78 40.79 39.30 39.96 43.12 48.78 49.75 53.30 53.70 54.37 52.14 51.88 52.61 53.33 53.25 55.40 56.66 56.53 56.78 57.54 57.77 57.84 57.77 57.76 58.38 58.98 59.01 60.02 59.33 41.13 56.31 55.95 55.73 58.03 57.54 56.36 55.81 55.03 54.69 53.92 54.18 55.38
40.76 43.94 42.16 38.83 39.38 40.74 42.21 41.89 42.68 45.85 47.89 47.54 43.10 41.82 43.18 46.91 48.77 50.05 52.44 54.32 53.98 52.68 51.46 51.23 51.77 54.74 54.01 54.49 56.82 57.62 57.91 56.67 54.25 51.90 51.50 51.93 52.74 54.46 57.49 57.51 56.44 56.73 57.28 55.93 38.66 46.81 54.86 55.74 54.53 55.27 54.19 54.74 56.18 57.12
41.10 43.66 39.86 39.46 38.58 38.69 43.57 46.29 45.70 48.50 48.60 47.90 47.91 47.70 47.66 49.91 52.56 54.10 54.33 53.70 51.88 51.51 52.13 52.72 53.31 52.77 52.95 53.97 54.18 54.97 56.79 57.18 56.79 54.26 51.91 51.51 52.46 55.11 55.42 55.33 55.48 56.15 57.54 57.28 56.57 55.90 43.61 51.93 49.93 55.12 54.32 54.80 55.34 54.96
43.65 41.67 40.24 41.11 41.42 45.38 47.06 49.00 48.82 48.47 48.35 47.75 48.74 46.68 46.47 47.83 49.70 52.67 54.68 54.98 53.56 53.80 53.53 53.39 55.07 56.20 55.47 54.73 54.79 54.25 54.12 56.78 57.04 57.27 57.40 57.17 57.09 56.25 56.44 56.80 57.28 57.75 57.37 56.44 55.79 55.82 55.36 54.27 55.44 54.75 54.14 53.69 53.23 51.50
44.81 43.08 42.25 41.37 43.13 47.27 48.80 47.34 46.90 46.84 47.58 47.29 47.45 48.96 48.80 48.31 46.66 50.90 54.28 55.14 54.67 54.41 52.32 54.13 55.57 56.01 57.26 58.06 57.51 57.30 44.81 57.06 58.23 58.32 56.61 57.23 57.28 57.69 57.47 57.59 57.49 57.94 58.02 57.56 57.43 56.09 55.67 54.18 53.96 53.33 52.96 51.99 51.94 51.65
46.80 47.08 48.20 47.79 46.84 46.45 49.58 49.23 47.63 47.32 48.36 48.12 48.81 50.89 50.92 49.95 48.45 52.96 56.73 57.29 56.29 55.82 55.94 56.64 57.61 57.77 56.78 56.65 56.56 56.72 49.62 56.90 47.43 38.12 39.92 40.02 40.77 48.81 57.30 57.94 58.00 58.51 56.85 57.04 55.88 55.27 53.73 52.26 52.25 51.74 52.03 51.57 51.23 51.01
MSLP
1018.84 1019.59 1020.22 1020.93 1021.53 1021.86 1022.23 1022.31 1022.42 1022.49 1022.53 1022.21 1021.93 1021.70 1021.28 1020.87 1020.38 1019.42 1019.08 1019.36 1018.41 1016.71 1015.31 1015.38 1014.95 1014.26 1013.49 1012.92 1012.16 1012.24 1011.65 1011.11 1009.81 1008.77 1007.66 1006.03 1005.71 1005.50 1005.50 1005.66 1005.16 1004.48 1003.92 1003.75 1004.21 1004.26 1005.19 1006.26 1005.62 1005.50 1006.98 1006.71 1006.69 1006.79
1018.16 1018.88 1019.62 1020.50 1021.06 1021.44 1021.92 1022.02 1022.22 1022.38 1022.38 1022.17 1021.92 1021.67 1021.36 1021.13 1020.77 1020.27 1018.84 1019.42 1019.60 1018.41 1016.09 1016.30 1015.66 1015.38 1015.16 1014.56 1014.11 1013.12 1013.21 1012.81 1012.46 1011.27 1009.97 1008.80 1007.28 1006.80 1006.45 1005.68 1006.47 1006.04 1006.18 1005.27 1005.97 1006.13 1007.38 1007.61 1007.72 1007.96 1007.93 1007.68 1007.50 1007.45
1017.48 1018.28 1019.12 1019.90 1020.54 1021.02 1021.47 1021.82 1022.10 1022.15 1022.14 1022.18 1022.04 1021.79 1021.60 1021.45 1021.21 1021.01 1019.81 1019.76 1019.06 1017.82 1015.74 1015.21 1014.33 1014.96 1015.02 1014.87 1014.60 1013.85 1013.60 1014.08 1013.71 1013.76 1012.61 1010.60 1008.98 1008.17 1006.70 1006.72 1006.87 1007.19 1007.32 1006.33 1007.06 1007.37 1008.02 1008.48 1008.72 1008.80 1008.67 1008.42 1008.34 1007.72
1016.84 1017.68 1018.50 1019.37 1020.10 1020.60 1021.06 1021.52 1021.88 1021.85 1021.97 1022.10 1022.01 1021.88 1021.78 1021.62 1021.56 1021.41 1020.08 1020.00 1019.55 1018.28 1015.92 1014.43 1014.59 1014.48 1014.92 1014.87 1014.87 1014.65 1014.58 1014.61 1014.66 1014.10 1012.97 1011.55 1009.96 1009.62 1008.16 1008.07 1007.43 1007.40 1007.65 1007.60 1007.49 1008.24 1008.74 1009.24 1009.32 1009.36 1008.83 1009.14 1008.88 1008.66
1016.26 1017.15 1018.08 1018.98 1019.70 1020.23 1020.77 1021.20 1021.66 1021.70 1021.85 1022.06 1022.06 1021.99 1021.92 1021.80 1021.62 1021.02 1020.51 1020.24 1020.08 1019.43 1016.58 1014.39 1014.24 1014.53 1014.27 1014.50 1014.64 1014.72 1014.69 1014.58 1014.20 1013.86 1012.86 1012.02 1011.45 1010.62 1009.46 1008.57 1007.50 1007.86 1007.80 1007.72 1007.51 1008.86 1009.06 1009.20 1009.71 1009.60 1009.42 1009.30 1009.05 1008.84
1015.75 1016.68 1017.76 1018.66 1019.39 1019.89 1020.41 1021.10 1021.40 1021.58 1021.69 1022.01 1021.99 1022.02 1022.00 1021.83 1021.46 1020.32 1019.74 1020.14 1020.05 1019.77 1017.89 1014.58 1014.24 1014.13 1014.14 1014.26 1014.40 1014.38 1014.24 1014.19 1013.88 1013.57 1012.84 1012.50 1012.75 1012.06 1009.73 1008.60 1008.63 1008.77 1009.03 1009.05 1009.23 1009.66 1009.70 1009.99 1010.26 1010.24 1009.86 1009.76 1009.78 1009.59
1015.52 1016.64 1017.63 1018.45 1019.12 1019.76 1020.43 1020.80 1021.04 1021.40 1021.71 1021.86 1021.96 1022.07 1022.00 1021.87 1021.14 1020.54 1020.57 1020.67 1020.89 1020.04 1017.85 1015.16 1013.46 1013.97 1014.16 1014.08 1013.83 1013.68 1014.14 1013.77 1013.70 1013.30 1012.99 1012.48 1012.22 1012.17 1010.60 1009.44 1009.08 1009.54 1009.71 1009.86 1010.11 1010.09 1009.84 1010.12 1010.09 1010.58 1010.41 1010.38 1010.46 1010.31
1016.06 1016.87 1017.68 1018.41 1019.07 1019.73 1020.23 1020.58 1020.96 1021.27 1021.55 1021.77 1021.94 1021.97 1021.88 1021.72 1021.56 1020.67 1019.92 1020.84 1021.01 1019.59 1018.10 1015.66 1013.62 1013.52 1014.01 1013.03 1012.87 1013.55 1013.14 1013.42 1013.40 1012.88 1012.93 1012.25 1012.10 1011.91 1010.82 1010.32 1010.45 1010.74 1010.72 1010.49 1010.29 1010.34 1010.15 1010.23 1010.55 1010.69 1010.66 1010.52 1010.47 1010.56
1016.12 1016.83 1017.63 1018.44 1019.01 1019.51 1019.99 1020.52 1020.89 1021.17 1021.50 1021.76 1021.84 1021.78 1021.22 1020.98 1020.13 1020.20 1020.79 1020.81 1020.46 1019.64 1017.15 1015.67 1013.49 1012.78 1013.84 1013.08 1013.13 1013.39 1013.30 1012.66 1013.12 1012.53 1012.20 1012.32 1011.36 1011.26 1011.12 1011.61 1011.63 1011.72 1011.73 1011.37 1011.19 1010.76 1010.37 1010.52 1010.73 1010.96 1011.03 1011.05 1010.82 1011.04
1016.34 1017.03 1017.65 1018.30 1018.83 1019.38 1019.96 1020.43 1020.91 1021.22 1021.61 1021.74 1021.58 1020.70 1019.82 1019.97 1021.01 1020.99 1020.66 1019.68 1018.96 1017.94 1017.41 1015.48 1014.36 1013.18 1013.60 1013.03 1013.27 1013.64 1013.05 1012.28 1011.95 1011.70 1012.07 1011.84 1010.94 1011.41 1012.05 1012.56 1012.66 1012.45 1011.93 1011.61 1011.24 1010.73 1010.50 1010.57 1010.88 1011.07 1011.22 1011.24 1011.28 1011.41
1016.38 1016.97 1017.60 1018.14 1018.73 1019.31 1019.80 1020.37 1020.89 1021.36 1021.73 1021.24 1020.46 1019.70 1020.08 1020.73 1020.20 1019.34 1018.60 1018.07 1017.15 1016.46 1015.71 1014.89 1014.31 1013.23 1013.84 1013.30 1013.24 1013.74 1013.22 1013.02 1012.18 1011.36 1011.68 1010.92 1010.78 1011.25 1012.65 1012.94 1013.04 1012.86 1012.59 1012.28 1012.01 1011.78 1011.49 1011.34 1011.49 1011.62 1011.68 1011.84 1011.91 1012.03
1016.17 1016.76 1017.42 1018.11 1018.74 1019.27 1019.80 1020.38 1020.87 1020.92 1020.48 1020.90 1020.44 1020.41 1020.08 1019.44 1018.92 1018.23 1017.36 1016.80 1016.09 1014.70 1014.69 1014.33 1014.01 1014.16 1013.69 1014.13 1013.86 1013.96 1013.25 1012.76 1011.83 1012.06 1011.96 1010.88 1011.36 1012.55 1012.85 1013.22 1013.40 1013.34 1013.26 1013.12 1013.06 1012.87 1012.66 1012.49 1012.42 1012.24 1012.08 1012.15 1012.28 1012.32
1016.24 1016.84 1017.49 1018.09 1018.76 1019.40 1019.86 1020.36 1020.76 1020.97 1020.92 1020.45 1020.20 1019.40 1018.77 1018.56 1017.99 1016.91 1015.62 1014.95 1014.45 1014.46 1014.38 1014.27 1013.98 1013.86 1014.26 1014.12 1013.82 1013.58 1012.95 1012.10 1012.18 1012.12 1011.50 1011.82 1012.71 1013.30 1013.55 1013.63 1013.76 1013.72 1013.63 1013.44 1013.31 1013.22 1013.05 1012.93 1012.80 1012.74 1012.64 1012.61 1012.65 1012.58
1016.13 1016.76 1017.42 1018.01 1018.67 1019.40 1020.04 1020.62 1020.96 1020.98 1020.32 1019.02 1018.63 1018.68 1017.75 1016.80 1015.90 1015.00 1014.40 1013.96 1014.37 1014.37 1014.29 1014.26 1013.79 1013.65 1013.78 1013.91 1013.32 1013.10 1012.89 1012.66 1011.96 1011.54 1011.67 1012.65 1013.23 1013.82 1014.37 1014.51 1014.30 1014.08 1013.93 1013.70 1013.53 1013.40 1013.23 1013.11 1013.05 1013.06 1012.93 1012.86 1012.83 1012.77
1016.20 1016.74 1017.50 1018.16 1018.78 1019.49 1020.16 1020.66 1020.99 1020.52 1019.48 1018.47 1017.72 1016.92 1016.18 1015.34 1015.17 1014.90 1014.80 1014.78 1014.46 1014.56 1014.39 1014.25 1014.08 1014.02 1013.87 1013.80 1013.39 1013.21 1012.87 1012.24 1011.80 1011.87 1012.50 1013.64 1014.26 1014.64 1014.72 1014.44 1014.37 1014.34 1014.24 1014.05 1013.93 1013.69 1013.55 1013.46 1013.35 1013.14 1013.00 1012.94 1012.92 1012.90
1016.28 1016.91 1017.64 1018.08 1018.81 1019.59 1020.26 1020.76 1020.82 1020.28 1019.24 1018.20 1017.36 1016.04 1015.40 1015.06 1014.47 1014.41 1014.31 1014.06 1014.36 1014.32 1014.38 1014.14 1013.92 1013.71 1013.74 1013.65 1013.12 1012.68 1012.92 1012.68 1012.58 1012.85 1013.52 1014.05 1014.35 1014.49 1014.71 1014.74 1014.80 1014.80 1014.86 1014.59 1014.52 1014.35 1013.93 1013.60 1013.50 1013.36 1013.24 1013.14 1013.07 1012.96
1016.38 1016.69 1017.08 1017.99 1018.93 1019.85 1020.30 1020.19 1020.37 1019.81 1018.42 1017.45 1016.09 1015.76 1015.25 1014.74 1014.56 1014.50 1014.54 1014.54 1014.78 1014.05 1013.66 1013.48 1013.23 1013.02 1013.10 1012.87 1012.57 1012.58 1012.58 1012.97 1013.02 1013.29 1013.62 1014.41 1014.73 1014.93 1015.06 1015.16 1015.28 1015.50 1015.41 1015.13 1014.64 1014.62 1014.48 1014.29 1014.00 1013.90 1013.86 1013.90 1014.03 1013.85
1016.56 1015.89 1017.10 1018.26 1019.28 1020.00 1020.09 1020.05 1019.71 1018.77 1017.61 1016.41 1015.53 1015.09 1015.05 1015.12 1014.86 1014.82 1014.68 1014.65 1014.51 1013.81 1013.74 1013.24 1012.88 1012.70 1012.38 1012.19 1012.32 1012.86 1012.96 1013.22 1013.51 1013.98 1014.27 1014.72 1015.07 1015.28 1015.44 1015.80 1015.80 1015.74 1015.58 1015.37 1015.12 1014.79 1014.44 1014.18 1014.10 1014.24 1014.18 1014.08 1013.94 1013.98
1016.35 1017.24 1018.22 1018.80 1018.93 1018.87 1018.93 1019.43 1019.09 1017.54 1016.40 1015.75 1015.51 1015.31 1015.24 1015.18 1015.39 1015.29 1014.85 1014.74 1014.66 1014.36 1013.96 1013.25 1012.80 1012.26 1012.42 1012.92 1012.96 1013.05 1013.34 1013.51 1013.94 1014.29 1014.60 1015.04 1015.40 1015.53 1015.76 1015.97 1015.92 1015.52 1015.42 1015.12 1014.92 1014.84 1014.63 1014.77 1014.89 1014.84 1014.82 1014.67 1014.46 1014.53
1017.94 1018.56 1019.06 1019.33 1019.36 1018.26 1018.30 1018.24 1018.45 1017.26 1015.98 1015.53 1015.54 1015.48 1015.47 1015.60 1015.85 1015.41 1015.02 1014.40 1014.19 1013.83 1013.37 1013.00 1012.78 1013.12 1013.29 1013.38 1013.65 1013.87 1014.22 1014.74 1015.07 1015.04 1014.70 1014.92 1015.78 1016.12 1016.06 1016.13 1016.04 1015.83 1015.52 1015.25 1015.19 1015.38 1015.22 1015.21 1015.26 1015.22 1015.17 1015.02 1014.86 1014.80
1018.44 1019.04 1019.03 1018.70 1018.34 1018.07 1017.54 1017.08 1016.83 1016.29 1015.55 1015.38 1015.37 1015.43 1015.58 1015.48 1015.43 1015.32 1014.61 1014.43 1013.88 1013.25 1013.00 1013.25 1013.38 1013.90 1014.42 1014.61 1014.74 1014.90 1015.02 1015.56 1015.95 1016.23 1016.14 1016.19 1016.38 1016.40 1016.10 1016.02 1016.14 1015.95 1015.81 1015.72 1015.71 1015.77 1015.70 1015.59 1015.56 1015.45 1015.42 1015.31 1015.19 1015.11
1018.83 1019.31 1018.69 1018.54 1017.94 1017.63 1017.27 1016.82 1016.47 1015.85 1015.77 1015.17 1015.25 1015.22 1014.96 1014.94 1014.90 1014.91 1014.98 1014.18 1013.55 1013.40 1013.80 1013.87 1014.18 1014.54 1014.80 1015.09 1015.24 1015.61 1015.74 1016.04 1016.28 1016.31 1016.42 1016.36 1016.29 1016.16 1016.08 1016.02 1015.92 1015.90 1015.99 1016.10 1016.09 1016.01 1015.80 1015.82 1015.49 1015.64 1015.58 1015.63 1015.45 1015.38
1019.24 1018.98 1018.46 1018.14 1017.65 1017.29 1016.78 1016.44 1015.79 1015.35 1014.98 1014.96 1014.84 1014.62 1014.60 1014.81 1015.08 1015.28 1014.50 1014.26 1014.08 1014.63 1014.77 1014.96 1015.36 1015.60 1015.63 1015.69 1015.74 1015.80 1015.87 1015.97 1016.19 1016.26 1016.19 1016.12 1016.02 1016.00 1015.78 1015.66 1015.69 1015.75 1015.90 1016.22 1016.22 1016.14 1015.95 1015.70 1015.70 1015.79 1015.80 1015.75 1015.34 1014.62
1019.60 1018.92 1018.22 1017.85 1017.47 1016.67 1016.07 1015.57 1015.37 1014.98 1014.97 1014.95 1014.90 1014.66 1014.85 1015.10 1015.31 1014.88 1014.54 1014.35 1014.49 1015.02 1015.18 1015.55 1015.64 1015.67 1015.81 1016.12 1016.00 1015.77 1016.14 1016.17 1016.00 1016.02 1016.04 1015.79 1015.56 1015.37 1015.03 1014.98 1015.19 1015.21 1015.60 1015.51 1015.49 1015.21 1015.10 1015.00 1015.13 1015.15 1014.70 1014.32 1014.08 1013.82
1019.47 1018.89 1018.32 1017.68 1016.98 1016.46 1015.68 1015.40 1015.36 1015.20 1015.03 1015.09 1015.04 1015.08 1015.16 1015.54 1015.16 1015.21 1015.18 1014.56 1014.68 1014.90 1015.09 1015.45 1015.91 1015.98 1016.18 1016.09 1016.08 1015.97 1015.94 1015.70 1015.46 1015.53 1015.64 1014.93 1014.54 1014.48 1014.60 1014.47 1014.57 1014.50 1014.70 1014.87 1015.04 1015.10 1014.87 1014.63 1014.43 1014.27 1014.22 1014.16 1014.01 1013.81
1018.57 1017.87 1017.82 1016.79 1016.54 1016.10 1015.93 1015.58 1015.57 1015.38 1015.30 1015.24 1015.29 1015.55 1015.79 1015.57 1015.47 1015.38 1014.78 1014.67 1014.90 1015.22 1015.23 1015.51 1015.87 1016.24 1016.18 1015.98 1015.84 1015.48 1015.33 1015.06 1014.78 1014.44 1014.61 1014.13 1013.78 1013.80 1013.89 1014.23 1014.80 1014.83 1014.79 1014.74 1014.41 1014.38 1014.36 1014.26 1014.21 1014.18 1014.14 1014.44 1014.63 1013.88
1018.06 1017.54 1017.39 1017.16 1016.87 1016.78 1016.30 1016.01 1015.88 1015.62 1015.28 1015.12 1015.16 1015.66 1015.86 1015.65 1015.40 1015.19 1015.12 1015.14 1015.17 1015.31 1015.58 1015.90 1016.17 1016.23 1016.00 1015.89 1015.56 1015.08 1014.80 1014.74 1014.07 1014.02 1014.32 1014.10 1014.04 1014.64 1014.29 1014.09 1013.94 1014.61 1014.68 1014.80 1014.58 1014.50 1014.23 1014.11 1014.05 1014.09 1014.07 1014.15 1014.04 1013.80
1018.04 1018.01 1017.63 1017.36 1017.13 1016.91 1016.56 1016.00 1015.70 1015.34 1015.01 1015.10 1015.38 1015.36 1015.45 1015.33 1015.12 1015.24 1015.44 1015.45 1015.58 1015.69 1015.98 1016.12 1016.17 1016.16 1016.07 1015.62 1014.88 1014.71 1014.53 1014.28 1014.64 1014.44 1014.22 1014.14 1014.21 1014.18 1014.44 1014.32 1014.57 1015.21 1014.92 1015.00 1014.85 1014.42 1014.26 1014.11 1014.31 1014.35 1014.02 1013.70 1013.66 1013.81
1018.22 1017.76 1017.82 1017.37 1017.16 1016.87 1016.27 1015.75 1015.37 1015.30 1015.29 1015.00 1015.53 1015.82 1015.82 1015.75 1015.68 1015.62 1015.52 1015.45 1015.80 1015.83 1015.76 1015.95 1016.10 1016.01 1015.84 1015.51 1015.00 1014.53 1014.19 1013.62 1013.55 1013.72 1013.55 1013.17 1013.16 1013.56 1014.08 1014.18 1014.35 1014.42 1014.41 1014.49 1015.12 1014.93 1014.82 1014.46 1014.62 1014.40 1014.29 1013.82 1013.87 1013.92
1017.88 1017.88 1017.75 1017.41 1017.10 1016.65 1016.19 1015.88 1015.74 1015.73 1015.94 1016.02 1016.06 1015.97 1015.86 1015.52 1015.35 1015.38 1015.29 1015.46 1015.68 1015.74 1015.71 1015.74 1015.67 1015.32 1014.81 1014.40 1014.09 1013.98 1013.78 1013.56 1013.57 1013.29 1013.02 1012.95 1013.15 1013.41 1013.80 1014.01 1014.11 1014.03 1014.13 1014.09 1013.95 1014.18 1014.85 1014.73 1014.57 1014.20 1014.02 1013.70 1013.52 1013.62
1017.37 1017.53 1017.30 1016.84 1016.30 1015.92 1015.82 1015.78 1015.85 1015.88 1015.78 1015.65 1015.64 1015.56 1015.29 1015.44 1015.67 1015.61 1015.39 1015.31 1015.49 1015.54 1015.01 1014.81 1014.34 1014.08 1013.71 1013.58 1013.48 1013.35 1012.95 1013.44 1013.72 1013.85 1013.84 1013.57 1013.52 1013.61 1013.74 1013.80 1013.79 1013.84 1013.91 1013.96 1013.96 1013.87 1014.01 1013.90 1013.78 1013.78 1013.75 1014.06 1014.26 1014.27
1016.43 1016.28 1015.98 1015.46 1015.32 1015.56 1015.48 1015.40 1015.38 1015.26 1015.10 1014.96 1014.86 1014.75 1014.89 1014.83 1014.79 1014.82 1014.86 1014.83 1014.75 1014.46 1014.36 1014.22 1013.74 1013.49 1013.65 1013.52 1013.62 1013.64 1014.12 1013.67 1013.72 1013.77 1013.96 1013.75 1013.68 1013.60 1013.67 1013.84 1013.96 1013.94 1013.94 1013.92 1013.91 1013.88 1014.08 1014.22 1014.12 1014.26 1014.20 1014.47 1014.64 1014.70
1015.27 1014.96 1014.36 1013.78 1013.80 1013.86 1013.78 1013.68 1013.77 1013.86 1013.84 1013.83 1013.80 1013.46 1013.30 1013.24 1013.44 1013.47 1013.90 1014.19 1013.97 1013.72 1013.51 1013.40 1013.37 1013.45 1013.73 1013.88 1013.73 1013.73 1014.04 1014.03 1014.54 1014.57 1014.57 1014.38 1014.34 1014.16 1013.83 1013.82 1014.03 1014.00 1013.96 1013.98 1014.00 1014.14 1014.40 1014.55 1014.48 1014.68 1014.68 1014.76 1014.85 1014.94
Wind_Speed
22 21 20 18 16 13 10 8 5 3 3 6 9 11 14 15 17 9 5 6 5 4 4 3 3 6 5 3 5 8 6 2 4 2 6 3 8 4 3 4 1 6 5 5 1 4 7 7 4 4 7 3 5 3
22 21 20 19 16 13 11 8 6 5 2 5 7 9 12 14 16 13 1 3 3 4 6 4 10 12 11 8 7 4 4 4 5 4 2 4 3 3 4 6 2 3 7 3 7 7 5 4 5 4 4 3 5 3
22 21 21 19 16 13 11 9 7 6 3 3 5 8 9 11 12 11 4 4 3 4 5 6 3 3 3 6 8 5 3 5 3 4 4 3 3 5 3 4 2 3 2 1 3 5 3 3 3 4 2 4 2 5
22 21 21 19 17 14 12 10 8 7 4 3 4 6 8 9 10 9 4 3 3 4 5 6 2 1 2 1 5 6 3 2 3 3 2 4 4 3 3 3 5 7 2 2 2 4 2 3 4 4 5 2 4 4
22 22 22 19 17 15 13 10 9 8 6 4 3 4 6 8 10 7 2 1 2 6 6 2 1 3 2 3 5 5 4 3 0 3 1 4 4 4 0 3 3 1 5 5 5 5 5 5 4 2 3 5 6 8
22 23 20 18 16 13 12 11 9 9 7 5 3 4 6 8 9 4 5 4 1 4 5 3 3 3 2 4 6 4 2 2 2 2 2 2 2 5 4 3 6 3 2 4 4 4 3 4 3 2 3 4 5 7
21 19 17 15 14 13 11 10 8 10 8 5 3 4 6 6 6 4 7 5 2 4 4 4 4 5 1 3 5 3 3 0 3 1 4 3 2 4 4 7 4 4 2 3 2 1 5 2 5 4 3 5 3 5
20 19 17 15 13 12 11 9 10 10 8 5 4 5 7 8 8 5 2 9 7 5 3 4 2 5 1 5 5 2 3 3 4 3 2 5 3 4 5 7 3 3 6 5 2 4 5 3 3 3 2 5 4 6
19 20 18 15 13 11 11 10 11 10 7 4 4 7 4 4 3 4 5 8 4 5 4 3 4 3 3 4 1 4 3 5 3 5 4 3 6 7 0 4 6 7 7 9 8 8 6 4 3 4 5 2 4 5
15 16 16 15 15 13 12 12 11 9 6 2 5 5 4 3 2 6 5 5 5 4 4 5 1 3 4 3 3 2 3 5 4 5 3 5 7 5 3 3 5 7 8 6 8 9 8 6 5 2 2 4 5 6
18 17 16 16 14 13 14 14 12 10 5 4 4 1 4 2 5 4 3 4 4 5 5 3 4 4 4 4 4 2 2 3 4 4 5 5 5 8 5 5 5 7 8 8 5 4 4 5 4 2 2 1 3 4
16 17 17 15 14 14 15 15 14 7 1 3 2 1 3 4 3 5 4 3 5 3 5 4 2 4 2 2 3 4 3 2 5 5 4 5 6 6 6 5 5 6 6 7 6 5 5 4 5 5 5 5 5 5
14 16 17 17 16 16 16 15 9 7 7 3 3 4 3 3 3 5 8 5 4 5 4 4 5 3 4 4 4 3 6 5 1 4 4 3 7 6 5 4 4 4 5 6 5 6 6 6 6 6 7 7 7 7
16 16 18 18 18 17 16 15 11 5 5 4 5 2 5 5 5 3 3 2 6 2 2 2 3 4 2 4 3 4 0 3 5 4 2 4 7 6 5 2 4 6 8 8 8 7 8 8 9 9 9 8 9 10
13 14 17 17 19 18 16 14 8 4 3 4 4 4 7 2 1 1 1 3 4 2 3 4 2 2 3 3 3 2 3 5 3 2 3 6 6 4 1 4 6 7 7 7 7 8 8 8 8 9 9 9 10 10
17 13 6 17 21 18 15 11 4 2 3 3 4 5 3 4 4 5 4 4 1 3 3 2 3 4 3 2 3 5 2 4 1 3 5 5 5 2 5 6 7 7 8 7 7 9 9 9 10 10 9 8 9 9
15 3 14 25 24 20 14 4 3 4 4 4 4 4 3 1 1 1 1 1 1 4 3 3 5 3 3 4 5 2 1 4 4 5 5 5 4 5 5 6 7 7 7 8 6 6 6 6 6 6 7 7 5 7
4 18 29 26 17 14 5 3 3 4 5 5 4 5 3 2 3 1 1 2 4 3 2 2 1 3 3 2 2 3 4 5 4 3 3 3 3 4 4 4 5 5 4 4 5 5 6 5 6 4 6 6 4 4
15 17 24 17 5 4 5 5 4 4 5 2 4 2 2 1 1 2 3 1 3 2 4 3 4 4 1 2 1 3 3 2 2 3 3 2 4 5 4 4 6 4 2 3 4 4 3 4 5 5 5 5 4 4
23 19 11 6 7 4 5 4 3 4 4 2 2 2 1 1 1 2 3 0 3 3 5 4 2 2 2 4 4 4 4 4 4 4 3 2 5 5 6 4 3 4 3 4 3 3 3 3 3 3 4 4 4 4
12 5 1 4 3 2 2 3 4 3 1 2 3 3 1 3 2 1 1 2 5 2 3 1 1 5 5 4 3 3 2 2 2 2 3 4 3 4 2 1 1 1 2 3 3 3 3 3 3 4 4 4 3 4
5 3 2 1 2 2 3 2 2 1 3 2 4 4 4 5 4 2 2 4 2 1 1 2 2 1 2 2 2 4 4 4 3 3 4 4 2 1 1 1 1 3 2 3 3 3 4 4 2 4 4 4 5 3
2 2 2 2 2 1 1 3 4 3 2 2 1 3 3 2 2 2 3 1 2 1 1 1 2 2 4 4 4 4 3 4 2 3 2 2 1 1 2 3 3 4 4 4 2 3 2 2 8 4 1 0 1 3
2 3 3 1 2 1 2 2 0 1 2 2 1 2 2 2 2 2 2 1 1 1 3 3 2 3 3 2 4 1 1 2 2 1 2 4 4 4 5 6 6 6 5 4 4 4 5 4 5 4 2 4 4 6
3 1 2 2 2 3 3 3 2 1 1 1 1 1 2 1 1 0 2 2 2 3 3 3 2 2 0 1 0 2 4 3 4 4 3 4 6 6 7 6 6 6 9 8 6 5 5 2 4 5 6 6 6 7
2 2 0 1 2 1 1 2 2 1 1 1 2 2 1 2 1 3 2 0 1 2 3 3 3 3 4 1 3 2 3 3 5 7 7 5 5 5 5 7 5 3 3 4 2 3 3 2 4 2 6 6 2 5
1 2 0 1 1 2 1 0 1 2 3 3 2 3 2 2 3 1 0 1 2 2 1 2 2 3 2 3 3 2 4 3 3 6 5 3 5 5 3 2 3 5 2 3 2 3 4 2 3 3 5 5 4 3
1 1 2 1 1 2 2 2 3 3 2 2 3 4 2 2 1 2 1 0 1 1 2 1 2 2 4 4 3 5 5 5 6 4 4 4 4 3 1 1 3 4 3 4 4 2 3 4 3 0 2 5 6 5
2 3 2 3 3 3 4 4 2 2 3 2 1 1 1 0 1 0 1 2 1 1 1 3 1 2 2 3 3 4 3 5 6 5 7 5 7 7 4 3 5 4 3 5 2 5 6 3 1 3 3 4 2 2
2 1 1 2 3 3 3 1 3 3 1 0 1 1 2 2 1 2 3 3 3 2 2 2 2 5 7 8 7 6 6 4 3 4 2 4 4 5 5 5 4 4 2 2 2 4 6 6 5 6 5 5 3 4
4 4 2 3 3 1 1 1 2 2 2 2 3 2 1 1 1 1 3 2 1 4 5 4 3 3 3 4 3 3 3 3 2 3 5 4 3 3 3 3 3 3 3 4 5 5 5 4 3 4 5 6 5 5
4 3 1 1 1 1 2 1 1 1 2 2 1 0 2 2 3 3 5 6 7 7 6 4 2 1 2 2 2 4 3 4 3 2 3 4 6 6 5 3 3 2 2 1 2 3 2 4 5 6 4 3 3 3
3 3 2 1 4 4 3 2 3 4 5 6 5 2 3 4 7 4 8 9 7 5 5 3 2 2 3 4 2 1 1 4 7 5 3 6 9 7 4 3 3 2 2 2 3 3 2 3 4 3 2 2 2 3
Wind_Direction
194 194 190 196 198 196 201 199 210 260 328 1 8 11 16 13 11 339 68 22 346 324 299 266 284 298 311 335 338 13 244 132 8 294 298 174 276 87 254 44 285 229 232 172 277 233 139 17 204 271 35 80 42 107
191 191 187 191 191 189 198 194 204 230 281 354 3 10 15 13 8 339 39 63 348 261 342 304 286 289 287 304 308 9 16 351 31 305 357 275 215 210 345 181 143 186 353 30 345 48 44 14 17 24 350 348 53 102
189 188 184 186 184 183 190 192 203 217 250 322 353 6 10 11 9 353 342 358 249 266 231 230 151 91 257 242 257 294 108 10 47 25 324 314 300 293 216 83 234 125 342 37 240 86 53 28 40 32 13 11 24 124
187 186 180 180 179 178 182 190 200 206 222 265 332 353 358 1 355 334 325 23 270 292 281 109 140 152 15 242 235 236 3 6 312 295 305 299 297 333 41 15 298 30 246 44 208 129 217 151 60 19 57 85 105 117
187 179 171 175 176 175 179 188 198 201 207 237 298 337 344 346 340 300 269 66 349 313 337 348 285 91 31 165 180 191 233 282 330 279 238 327 300 288 199 279 239 28 32 279 18 23 303 72 68 45 120 97 86 94
178 163 163 169 171 170 175 189 197 201 200 222 270 318 327 338 331 256 201 157 103 338 274 260 80 162 98 155 165 164 156 241 268 298 305 245 273 289 272 266 66 55 71 355 52 26 37 85 92 33 75 96 96 85
141 149 156 163 167 170 179 185 193 186 197 211 251 297 311 323 308 303 1 23 352 301 269 264 188 130 165 197 188 181 174 152 286 262 232 276 221 268 266 264 160 137 72 57 51 229 126 146 102 159 120 106 120 80
159 161 165 171 169 175 180 183 183 176 187 210 254 294 300 300 267 243 110 218 254 275 256 276 188 196 163 203 195 189 218 212 182 306 218 243 169 238 257 259 48 340 321 274 255 245 354 53 126 113 118 134 125 92
164 158 159 167 179 184 175 178 172 169 179 206 279 294 250 224 215 72 59 139 214 302 302 255 271 127 173 227 293 181 254 243 96 248 219 237 211 220 60 335 300 340 325 315 307 294 274 236 151 149 143 138 116 79
155 162 169 180 185 173 173 167 167 159 156 193 254 223 171 97 86 164 188 208 200 181 221 263 6 210 256 167 191 231 226 263 229 188 122 231 243 89 96 28 359 343 335 313 273 269 253 242 190 127 58 40 22 39
176 179 182 178 168 168 166 158 153 133 181 212 208 101 61 127 216 215 215 230 161 218 198 240 278 277 143 232 199 206 234 234 252 136 233 194 236 152 132 94 51 35 31 31 39 17 355 15 13 210 133 81 49 29
181 174 163 163 165 165 158 155 154 199 183 38 9 173 201 217 198 231 203 175 226 228 157 232 157 227 132 260 237 184 257 241 256 125 235 230 95 114 149 106 78 49 34 44 35 30 24 21 4 348 338 347 350 352
180 168 164 162 162 162 156 155 168 100 171 177 207 181 203 160 180 222 181 190 202 170 165 192 184 205 172 240 244 237 239 231 116 217 219 69 126 145 130 91 64 32 3 354 351 343 334 331 326 326 320 317 316 309
183 168 170 164 160 158 155 156 152 181 252 217 174 168 226 182 234 191 221 91 75 153 206 225 176 216 145 205 248 252 269 273 242 233 137 117 137 119 88 31 352 344 343 335 333 330 324 323 319 312 302 303 301 295
163 174 167 162 158 154 151 154 169 218 264 218 214 217 202 253 189 169 326 240 189 283 243 168 188 240 177 247 213 287 242 254 288 34 112 120 131 115 324 337 344 335 335 327 333 330 335 336 325 316 311 304 301 298
164 126 176 173 155 147 144 145 176 261 249 244 232 227 167 215 167 184 195 219 127 200 168 202 183 191 164 237 228 229 104 294 18 89 97 124 137 78 349 336 334 332 330 322 323 320 317 321 324 320 315 312 310 301
129 196 182 152 141 144 165 147 185 224 260 228 209 206 304 305 264 93 210 183 159 226 199 208 204 164 163 217 209 210 312 112 152 115 88 58 6 337 329 322 332 332 306 305 310 313 316 319 318 329 316 323 321 318
243 129 124 127 138 144 149 202 227 233 237 227 218 159 175 311 289 257 213 198 235 213 241 272 318 223 237 260 121 117 136 113 83 67 39 12 325 313 308 304 316 289 288 306 300 299 293 328 332 349 343 324 313 329
122 122 130 141 150 147 152 178 248 242 225 183 221 195 246 210 89 299 297 199 244 282 275 237 240 243 114 32 72 128 120 89 45 32 343 347 324 308 299 317 295 310 325 318 352 337 360 6 5 2 353 345 352 -0
111 117 114 148 224 188 158 165 214 265 217 160 188 213 177 52 333 305 287 242 231 223 215 231 354 46 53 74 43 56 41 39 4 332 311 50 17 352 335 294 282 299 320 339 32 24 19 22 21 15 12 5 17 16
130 100 155 258 183 238 261 170 193 245 210 217 164 155 193 169 176 227 274 351 236 259 228 14 83 83 44 51 35 6 41 31 322 295 309 310 323 322 292 227 274 268 335 18 23 42 23 26 7 27 27 35 37 56
94 241 271 185 267 187 251 188 270 103 233 163 162 192 167 175 166 154 327 246 257 51 350 339 34 41 201 261 325 313 336 310 268 260 269 265 255 203 223 141 174 115 77 54 60 37 33 14 39 70 70 44 43 40
194 341 309 299 290 111 128 204 239 172 199 102 184 177 113 111 65 254 240 250 358 34 14 22 17 327 316 323 294 265 255 293 304 286 278 235 323 177 192 175 124 100 111 89 114 109 106 247 97 86 80 92 177 133
63 304 302 351 276 14 179 192 139 266 124 173 165 139 105 43 336 235 264 273 101 125 187 203 234 249 182 224 251 23 6 257 235 160 196 159 156 166 147 101 125 120 98 126 107 83 98 115 151 159 178 115 86 73
274 258 207 277 237 220 189 143 142 108 113 65 300 173 112 289 262 264 261 272 184 205 198 189 195 275 277 294 24 262 237 239 147 138 166 164 120 130 123 118 103 112 149 154 157 161 149 156 91 92 88 73 67 65
265 143 326 43 115 259 105 155 142 174 209 220 201 91 207 267 250 251 237 155 212 226 230 192 176 182 232 197 249 186 122 150 155 136 146 181 133 105 112 116 122 152 86 4 38 100 113 100 94 75 121 139 206 322
297 103 68 30 36 5 285 178 141 254 226 212 176 170 220 240 244 224 337 215 242 223 170 101 162 203 197 204 224 164 124 154 164 121 138 148 106 144 215 304 78 71 357 322 292 285 303 326 325 347 351 15 331 309
281 135 167 135 243 201 278 269 226 230 224 165 203 210 233 217 20 89 177 146 302 88 98 174 199 193 197 204 178 148 156 145 143 190 175 193 197 217 221 269 55 63 330 15 345 316 270 248 202 258 300 342 40 54
235 175 231 228 202 235 226 247 244 204 317 289 21 290 255 314 295 228 222 163 148 113 111 117 112 170 224 223 218 219 199 217 171 175 232 214 180 169 167 175 151 180 186 144 124 11 19 68 40 55 304 346 37 2
183 92 218 235 214 231 255 271 330 29 20 351 206 246 247 238 159 187 199 152 170 179 200 186 191 219 195 190 178 195 202 223 276 302 5 91 106 108 162 182 195 197 185 272 323 134 167 225 181 221 256 291 290 314
144 173 228 237 268 235 223 224 191 214 244 229 196 257 358 124 46 302 235 199 147 192 186 224 199 190 193 187 197 227 199 130 196 264 275 264 205 169 180 191 213 222 268 294 308 316 347 276 276 317 14 8 33 315
191 214 237 280 262 186 211 179 147 35 8 14 55 58 143 143 62 160 196 198 189 201 200 250 289 188 215 266 277 281 323 310 265 281 245 221 236 225 199 213 273 294 274 293 331 349 43 340 -0 359 3 55 11 14
346 352 343 73 131 158 135 185 129 131 146 136 155 163 41 53 109 144 170 203 221 235 239 243 270 330 334 285 292 67 261 74 50 27 5 58 43 359 249 177 129 160 117 24 16 66 32 8 9 6 13 20 26 23